Gilze-Rijen, Netherlands

2:29 AM CEST on August 25, 2016 (GMT +0200)
Gilze-Rijen Air Base

Weather History for EHGR - November, 2013

Change the Weather History Date:

Sunday, November 24, 2013

  Actual Average Record
Temperature  
Mean Temperature 42 °F -  
Max Temperature 48 °F 42 °F 57 °F (2006)
Min Temperature 35 °F 33 °F 15 °F (1998)
Degree Days  
Heating Degree Days 24    
Moisture  
Dew Point 39 °F    
Average Humidity 86    
Maximum Humidity 100    
Minimum Humidity 66    
Precipitation  
Precipitation 0.00 in - - ()
Sea Level Pressure  
Sea Level Pressure 30.25 in    
Wind  
Wind Speed 5 mph ()    
Max Wind Speed 14 mph    
Max Gust Speed -    
Visibility 6.0 miles    
Events Rain    
Averages and records for this station are not official NWS values.
T = Trace of Precipitation, MM = Missing Value Source: Averaged Metar Reports

Daily Weather History Graph

Daily Weather History Graph

Search for Another Location

Airport or City:

Trip Planner

Search our weather history database for the weather conditions in past years. The results will help you decide how hot, cold, wet, or windy it might be!

Date:

Astronomy

Nov. 24, 2013 Rise Set
Actual Time 8:13 AM CET 4:40 PM CET
Civil Twilight 7:35 AM CET 5:18 PM CET
Nautical Twilight 6:53 AM CET 5:59 PM CET
Astronomical Twilight 6:13 AM CET 6:39 PM CET
Moon 11:12 PM CET (11/24) 12:34 PM CET (11/24)
Length of Visible Light 9h 43m
Length of Day
8h 26m
Waning Gibbous, 63% of the Moon is Illuminated
Nov 24
Waning Gibbous
Nov 25
Last Quarter
Dec 3
New
Dec 9
First Quarter
Dec 17
Full

Hourly Weather History & Observations

Time (CET) Temp. Windchill Dew Point Humidity Pressure Visibility Wind Dir Wind Speed Gust Speed Precip Events Conditions
12:25 AM 35.6 °F 32.8 °F 33.8 °F 93% 30.18 in 6.2 mi North 3.5 mph - N/A   Mostly Cloudy
12:55 AM 35.6 °F - 33.8 °F 93% 30.18 in 6.2 mi North 2.3 mph - N/A   Overcast
1:25 AM 35.6 °F - 33.8 °F 93% 30.18 in 6.2 mi NW 2.3 mph - N/A   Overcast
1:55 AM 35.6 °F - 35.6 °F 100% 30.18 in 6.2 mi West 2.3 mph - N/A   Overcast
2:25 AM 35.6 °F - 35.6 °F 100% 30.18 in 6.2 mi WNW 2.3 mph - N/A   Overcast
2:55 AM 37.4 °F - 35.6 °F 93% 30.18 in 6.2 mi WSW 1.2 mph - N/A   Overcast
3:25 AM 37.4 °F - 35.6 °F 93% 30.18 in 6.2 mi NW 1.2 mph - N/A   Overcast
3:55 AM 39.2 °F 37.0 °F 35.6 °F 87% 30.18 in 6.2 mi West 3.5 mph - N/A   Overcast
3:59 AM 39.2 °F 37.0 °F 35.6 °F 87% 30.18 in 6.2 mi West 3.5 mph - N/A   Mostly Cloudy
4:06 AM 39.2 °F 37.0 °F 35.6 °F 87% 30.18 in 6.2 mi West 3.5 mph - N/A   Mostly Cloudy
4:10 AM 39.2 °F 37.0 °F 37.4 °F 93% 30.18 in 6.2 mi WNW 3.5 mph - N/A   Overcast
4:16 AM 39.2 °F 37.0 °F 37.4 °F 93% 30.18 in 6.2 mi West 3.5 mph - N/A   Mostly Cloudy
4:25 AM 39.2 °F - 37.4 °F 93% 30.18 in 6.2 mi West 1.2 mph - N/A   Overcast
4:55 AM 39.2 °F 34.2 °F 37.4 °F 93% 30.18 in 6.2 mi WNW 6.9 mph - N/A   Mostly Cloudy
4:59 AM 39.2 °F 34.2 °F 37.4 °F 93% 30.18 in 6.2 mi WNW 6.9 mph - N/A   Drizzle
5:03 AM 39.2 °F 35.0 °F 37.4 °F 93% 30.18 in 6.2 mi NW 5.8 mph - N/A   Light Drizzle
5:25 AM 41.0 °F 39.0 °F 39.2 °F 93% 30.18 in 6.2 mi WNW 3.5 mph - N/A   Overcast
5:55 AM 41.0 °F 39.0 °F 39.2 °F 93% 30.18 in 6.2 mi WNW 3.5 mph - N/A   Overcast
6:08 AM 41.0 °F - 39.2 °F 93% 30.18 in 6.2 mi WNW 2.3 mph - N/A   Overcast
6:18 AM 41.0 °F 39.0 °F 39.2 °F 93% 30.21 in - NW 3.5 mph - N/A Rain Light Rain
6:25 AM 41.0 °F 38.0 °F 41.0 °F 100% 30.21 in - NNW 4.6 mph - N/A Rain Heavy Rain Showers
6:27 AM 42.8 °F 39.3 °F 41.0 °F 93% 30.21 in 3.1 mi North 5.8 mph - N/A   Drizzle
6:36 AM 42.8 °F 39.3 °F 41.0 °F 93% 30.21 in 6.2 mi North 5.8 mph - N/A   Light Drizzle
6:55 AM 42.8 °F 39.3 °F 41.0 °F 93% 30.21 in 6.2 mi North 5.8 mph - N/A   Overcast
7:16 AM 42.8 °F 39.3 °F 41.0 °F 93% 30.21 in 4.3 mi NNW 5.8 mph - N/A   Overcast
7:25 AM 42.8 °F 40.1 °F 41.0 °F 93% 30.21 in 3.7 mi NNW 4.6 mph - N/A   Overcast
7:44 AM 42.8 °F 41.1 °F 42.8 °F 100% 30.21 in 5.6 mi NW 3.5 mph - N/A   Overcast
7:55 AM 42.8 °F 41.1 °F 41.0 °F 93% 30.21 in 5.0 mi NW 3.5 mph - N/A   Overcast
7:59 AM 42.8 °F 40.1 °F 41.0 °F 93% 30.21 in 4.3 mi NW 4.6 mph - N/A   Overcast
8:05 AM 42.8 °F 40.1 °F 41.0 °F 93% 30.21 in 5.0 mi NW 4.6 mph - N/A   Overcast
8:18 AM 42.8 °F 41.1 °F 41.0 °F 93% 30.21 in 6.2 mi NW 3.5 mph - N/A   Overcast
8:25 AM 42.8 °F 41.1 °F 41.0 °F 93% 30.21 in 6.2 mi NNW 3.5 mph - N/A   Overcast
8:55 AM 42.8 °F 41.1 °F 41.0 °F 93% 30.21 in 5.6 mi WNW 3.5 mph - N/A   Overcast
9:25 AM 42.8 °F 40.1 °F 41.0 °F 93% 30.21 in 6.2 mi NW 4.6 mph - N/A   Overcast
9:55 AM 44.6 °F 41.4 °F 41.0 °F 87% 30.24 in 6.2 mi NW 5.8 mph - N/A   Overcast
10:10 AM 44.6 °F 41.4 °F 41.0 °F 87% 30.24 in 6.2 mi NNW 5.8 mph - N/A   Overcast
10:25 AM 44.6 °F 39.2 °F 42.8 °F 93% 30.24 in 6.2 mi North 10.4 mph - N/A   Drizzle
10:29 AM 44.6 °F 38.8 °F 42.8 °F 93% 30.24 in 6.2 mi North 11.5 mph - N/A Rain Light Rain
10:41 AM 44.6 °F 39.2 °F 42.8 °F 93% 30.24 in 6.2 mi North 10.4 mph - N/A   Light Drizzle
10:55 AM 44.6 °F 41.4 °F 42.8 °F 93% 30.24 in 6.2 mi North 5.8 mph - N/A   Mostly Cloudy
11:25 AM 46.4 °F 42.4 °F 42.8 °F 87% 30.24 in 6.2 mi North 8.1 mph - N/A   Mostly Cloudy
11:55 AM 46.4 °F 42.4 °F 42.8 °F 87% 30.24 in 6.2 mi North 8.1 mph - N/A   Overcast
12:08 PM 48.2 °F - 42.8 °F 82% 30.24 in 6.2 mi North 9.2 mph - N/A   Overcast
12:09 PM 46.4 °F 41.5 °F 42.8 °F 87% 30.24 in 6.2 mi North 10.4 mph - N/A   Overcast
12:25 PM 46.4 °F 40.4 °F 42.8 °F 87% 30.24 in 6.2 mi North 13.8 mph - N/A Rain Light Rain
12:41 PM 44.6 °F 38.1 °F 41.0 °F 87% 30.27 in 6.2 mi NNE 13.8 mph - N/A   Light Drizzle
12:45 PM 46.4 °F 40.4 °F 41.0 °F 81% 30.27 in 6.2 mi NNE 13.8 mph - N/A   Light Drizzle
12:47 PM 46.4 °F 40.4 °F 41.0 °F 81% 30.27 in 6.2 mi NNE 13.8 mph - N/A   Overcast
12:55 PM 46.4 °F 40.7 °F 41.0 °F 81% 30.27 in 6.2 mi NNE 12.7 mph - N/A   Overcast
1:25 PM 46.4 °F 40.7 °F 41.0 °F 81% 30.27 in 6.2 mi NNE 12.7 mph - N/A   Mostly Cloudy
1:55 PM 46.4 °F 40.4 °F 37.4 °F 71% 30.27 in 6.2 mi North 13.8 mph - N/A   Overcast
2:25 PM 46.4 °F 40.4 °F 37.4 °F 71% 30.27 in 6.2 mi North 13.8 mph - N/A   Overcast
2:55 PM 46.4 °F 40.7 °F 37.4 °F 71% 30.27 in 6.2 mi North 12.7 mph - N/A   Overcast
3:25 PM 46.4 °F 40.7 °F 35.6 °F 66% 30.27 in 6.2 mi North 12.7 mph - N/A   Overcast
3:55 PM 44.6 °F 39.2 °F 35.6 °F 71% 30.30 in 6.2 mi North 10.4 mph - N/A   Overcast
4:25 PM 44.6 °F 38.8 °F 35.6 °F 71% 30.30 in 6.2 mi North 11.5 mph - N/A   Overcast
4:55 PM 44.6 °F 40.2 °F 35.6 °F 71% 30.30 in 6.2 mi North 8.1 mph - N/A   Overcast
5:25 PM 44.6 °F 40.7 °F 35.6 °F 71% 30.30 in 6.2 mi NNW 6.9 mph - N/A   Overcast
5:55 PM 44.6 °F 39.7 °F 35.6 °F 71% 30.33 in 6.2 mi North 9.2 mph - N/A   Overcast
6:25 PM 42.8 °F 38.6 °F 35.6 °F 76% 30.33 in 6.2 mi North 6.9 mph - N/A   Overcast
6:55 PM 42.8 °F 38.6 °F 35.6 °F 76% 30.33 in 6.2 mi North 6.9 mph - N/A   Overcast
7:25 PM 42.8 °F 38.0 °F 35.6 °F 76% 30.33 in 6.2 mi North 8.1 mph - N/A   Overcast
7:55 PM 42.8 °F 38.0 °F 35.6 °F 76% 30.36 in 6.2 mi North 8.1 mph - N/A   Overcast
8:25 PM 42.8 °F 38.0 °F 37.4 °F 81% 30.36 in 6.2 mi North 8.1 mph - N/A   Overcast
8:55 PM 42.8 °F 38.0 °F 35.6 °F 76% 30.36 in 6.2 mi North 8.1 mph - N/A   Overcast
9:25 PM 42.8 °F 38.0 °F 35.6 °F 76% 30.39 in 6.2 mi North 8.1 mph - N/A   Overcast
9:55 PM 41.0 °F 36.4 °F 35.6 °F 81% 30.39 in 6.2 mi NNW 6.9 mph - N/A   Overcast
10:25 PM 41.0 °F 36.4 °F 35.6 °F 81% 30.39 in 6.2 mi North 6.9 mph - N/A   Overcast
10:55 PM 41.0 °F 34.3 °F 35.6 °F 81% 30.39 in 6.2 mi North 11.5 mph - N/A   Overcast
11:25 PM 41.0 °F 35.8 °F 35.6 °F 81% 30.39 in 6.2 mi North 8.1 mph - N/A   Mostly Cloudy
11:55 PM 41.0 °F 38.0 °F 35.6 °F 81% 30.39 in 6.2 mi NNE 4.6 mph - N/A   Overcast